Regional Weather Roundup
Issued by NWS Goodland, KS

Home | Current Version | Previous Version | Text Only | Print | Product List | Glossary Off
Versions: 1 2 3 4 5 6 7 8 9 10 11 12 13 14 15 16 17 18 19 20 21 22 23 24 25 26 27 28 29 30 31 32 33 34 35 36 37 38 39 40 41 42 43 44 45 46 47 48 49 50

000
ASUS43 KGLD 222008
RWRGLD

GOODLAND FORECAST AREA HOURLY WEATHER ROUNDUP
NATIONAL WEATHER SERVICE GOODLAND KS
100 PM MST THU FEB 22 2018

...OFFICIAL OBSERVATIONS...

CITY           SKY/WX    TMP DP  RH WIND       PRES   REMARKS
GOODLAND KS    CLOUDY    26  17  68 S12       30.03F WCI  16
HILL CITY KS   CLOUDY    26  23  88 SE8       30.17F
IMPERIAL NEB   CLOUDY    24  16  71 SE6       30.07F
MCCOOK NEB     LGT SNOW  23  22  96 SE9       30.13R FOG
AKRON CO       CLOUDY    26  16  65 CALM      29.93F
BURLINGTON CO  SUNNY     29  18  63 S9        29.99F
LIMON CO       SUNNY     33  15  47 SE9       29.89F
$$

...UNOFFICIAL OBSERVATIONS...

CITY           SKY/WX    TMP DP  RH WIND       PRES   REMARKS
COLBY KS       CLOUDY    27  23  86 SE12      30.09F WCI  16
NORTON KS      CLOUDY    25  19  80 SE8       30.14
SHARON SPRINGS   N/A     36  20  52 S12G18      N/A
KIT CARSON CO    N/A     30  18  60 MISG        N/A
YUMA CO        PTSUNNY   30  14  51 S7        29.97F
$$




USA.gov is the U.S. government's official web portal to all federal, state and local government web resources and services.